TimeEST,TemperatureF,Dew PointF,Humidity,Sea Level PressureIn,VisibilityMPH,Wind Direction,Wind SpeedMPH,Gust SpeedMPH,PrecipitationIn,Events,Conditions,WindDirDegrees,DateUTC
12:54 AM,28.0,19.9,72,30.16,10.0,Calm,Calm,-,N/A,,Clear,0,2010-02-20 05:54:00
1:54 AM,27.0,19.9,75,30.16,10.0,Calm,Calm,-,N/A,,Clear,0,2010-02-20 06:54:00
2:54 AM,25.0,21.0,85,30.16,10.0,Calm,Calm,-,N/A,,Clear,0,2010-02-20 07:54:00
3:54 AM,26.6,21.2,80,30.13,10.0,Calm,Calm,-,N/A,,Clear,0,2010-02-20 08:54:00
4:54 AM,25.0,19.9,81,30.15,10.0,Calm,Calm,-,N/A,,Clear,0,2010-02-20 09:54:00
5:54 AM,24.1,19.9,84,30.18,10.0,Calm,Calm,-,N/A,,Clear,0,2010-02-20 10:54:00
6:54 AM,24.1,19.9,84,30.19,10.0,Calm,Calm,-,N/A,,Clear,0,2010-02-20 11:54:00
7:54 AM,28.0,21.0,75,30.21,10.0,NNW,6.9,-,N/A,,Clear,340,2010-02-20 12:54:00
8:54 AM,33.1,21.9,64,30.21,10.0,Calm,Calm,-,N/A,,Clear,0,2010-02-20 13:54:00
9:54 AM,41.0,23.0,49,30.20,10.0,North,6.9,-,N/A,,Clear,360,2010-02-20 14:54:00
10:54 AM,46.0,19.0,34,30.19,10.0,North,5.8,-,N/A,,Clear,360,2010-02-20 15:54:00
11:54 AM,48.9,16.0,27,30.18,10.0,North,4.6,-,N/A,,Clear,360,2010-02-20 16:54:00
12:54 PM,50.0,15.1,25,30.15,10.0,Calm,Calm,-,N/A,,Clear,0,2010-02-20 17:54:00
1:54 PM,52.0,17.1,25,30.13,10.0,Calm,Calm,-,N/A,,Overcast,0,2010-02-20 18:54:00
2:54 PM,54.0,15.1,22,30.11,10.0,Calm,Calm,-,N/A,,Scattered Clouds,0,2010-02-20 19:54:00
3:54 PM,55.0,15.1,21,30.11,10.0,WNW,3.5,-,N/A,,Clear,300,2010-02-20 20:54:00
4:54 PM,55.9,17.1,22,30.10,10.0,NNW,9.2,-,N/A,,Clear,340,2010-02-20 21:54:00
5:54 PM,51.1,21.0,31,30.12,10.0,NNW,9.2,-,0.00,,Clear,340,2010-02-20 22:54:00
6:54 PM,46.0,19.9,35,30.14,10.0,NW,3.5,-,N/A,,Clear,320,2010-02-20 23:54:00
7:54 PM,42.1,21.0,43,30.15,10.0,NNW,5.8,-,N/A,,Clear,340,2010-02-21 00:54:00
8:54 PM,39.0,21.0,49,30.15,10.0,Calm,Calm,-,N/A,,Clear,0,2010-02-21 01:54:00
9:54 PM,35.1,24.1,64,30.16,10.0,Calm,Calm,-,N/A,,Clear,0,2010-02-21 02:54:00
10:54 PM,33.1,24.1,70,30.16,10.0,Calm,Calm,-,N/A,,Clear,0,2010-02-21 03:54:00
11:54 PM,30.0,25.0,82,30.15,10.0,Calm,Calm,-,N/A,,Clear,0,2010-02-21 04:54:00